User: anonymous   Login
Location: Laverne
(36.7100°N, 99.8930°W)
Time: 21:08:19
(UTC-05:00)
Language:

Iridium 32 - Orbit

View from above orbital plane
View from above orbital plane
View from above satellite
View from above satellite

Ground track
Ground track

The orbit data is extracted from the following two-line orbital elements,

1 24945U 97051B   16210.14574034  .00000019  00000-0 -20896-6 0  9996
2 24945  86.3935  62.5855 0002237  83.9984 276.1467 14.34220664987971
Epoch (UTC): 28 July 2016 03:29:51
Eccentricity: 0.0002237
inclination: 86.3935°
perigee height: 776 km
apogee height: 779 km
right ascension of ascending node: 62.5855°
argument of perigee: 83.9984°
revolutions per day: 14.34220664
mean anomaly at epoch: 276.1467°
orbit number at epoch: 98797

The dashed part of the orbit path shows where the satellite is in the earth's shadow,  

DLR